Location: Eboldshausen
(51.7766°N, 10.0050°E)
Time: 18:10:17
(UTC+00:00)

COSMOS 2406 - Pass Details

Date: 15 November 2025
Orbit: 845 x 859 km, 71.0° (Epoch: 09 December)

Event Time Altitude Azimuth Distance (km) Brightness Sun altitude
Rises 16:57:43 0° 330° (NNW) 3,418 6.6 -13.5°
Reaches altitude 10° 17:00:24 10° 340° (NNW) 2,480 5.7 -13.9°
Maximum altitude 17:05:35 35° 45° (NE) 1,352 3.8 -14.7°
Enters shadow 17:08:32 21° 95° (E) 1,798 4.3 -15.2°
